Weather in Chervishevo

Russia / Tyumen Oblast     56°56′35″N   65°25′37″E
temp.,
°C
wind,
m/s
gust,
m/s
humid.,
%
clouds,
%
prec.,
mm/h
press.,
hPa
HPBL,
m
28 june, tue
tue2823:00+12sw377799 0.0 1003304
02:00+9wnw2696100 0.8 1004251
05:00+9nnw2498100 3.6 1003205
08:00+9n2598100 0.4 1003362
11:00+10nnw4689100 0.6 1003669
14:00+9nw4690100 0.3 1005623
17:00+10nw6774100 0.5 10051087
20:00+9nw377196 0.0 1004903
29 june, wed
wed2923:00+5wnw399579 0.0 1004249
02:00+6wnw4993100 0.1 1002500
05:00+5wnw4796100 0.3 1001938
08:00+6w3998100 1.2 999538
11:00+8nw61096100 5.1 9981178
14:00+7nnw61196100 3.2 10001260
17:00+7nnw61296100 4.1 1002986
20:00+8nnw4139199 0.0 1004902
30 june, thu
thu3023:00+6w369893 0.0 1004139
02:00+6w3109710 0.0 1003237
05:00+6nw310935 0.0 1003256
08:00+11nw47690 0.0 1004561
11:00+15nw58502 0.0 10041449
14:00+17nw574354 0.0 10042243
17:00+15nnw67519 0.0 10061599
20:00+12nnw47690 0.0 1007869
1 july, fri
fri123:00+6nw310951 0.0 1009333
02:00+4wnw389752 0.0 1009213
05:00+6wnw3892100 0.0 1009213
08:00+9wnw468195 0.0 1009300
11:00+16nw455512 0.0 10091274
14:00+17nw4554100 0.0 10091550
17:00+16n4560100 0.1 1010945
20:00+11wnw2278100 0.0 101065
2 july, sat
sat223:00+11w257897 0.0 1010137
02:00+10wnw269092 0.0 1009129
05:00+11wnw2585100 0.0 1008142
08:00+15nnw3568100 0.0 1008482
11:00+17nw345678 0.0 10071067
14:00+17nw4460100 0.0 10061128
17:00+13nw2683100 0.1 1006335
20:00+12wnw2588100 0.0 1005180